[[{"header":{"parameterUnit":"m.s-1","parameterCategory":1,"la1":30.2991,"la2":30.254,"lo1":-89.0895,"lo2":-89.0444,"dy":0.0017,"dx":0.0017,"nx":28,"ny":28,"refTime":"2024-03-15T21:00:00:Z","depth":0,"parameterNumber":2,"parameterNumberName":"U-component_of_WINDS"},"data":[0,0,0,0,0,0,0,0,0,0,0,0,0,0,0,0,0,0,0,0,0,0,0,0,0,0,0,0,0,0,0,0,0,0,0,0,0,0,0,0,0,0,0,0,0,0,0,0,0,0,0,0,0,0,0,0,0,0,-1.6852,-1.6852,0,-1.6823,-1.6822,-1.6822,-1.6663,-1.6659,-1.6656,-1.6652,-1.6625,-1.6628,-1.6631,0,0,0,0,0,0,0,0,0,0,0,0,0,-1.6771,-1.6774,-1.6852,-1.6852,-1.6851,-1.6823,-1.6822,-1.6822,-1.6664,-1.6659,-1.6655,-1.665,-1.6624,-1.6628,-1.6631,0,0,0,0,0,0,0,0,0,0,0,0,0,-1.6781,-1.6775,-1.6852,-1.6769,-1.6761,-1.6823,-1.6822,-1.6822,-1.6665,-1.6659,-1.6653,-1.6648,-1.6623,-1.6627,-1.6632,-1.6772,0,0,-1.6645,-1.6646,0,0,0,0,0,0,0,0,-1.6781,-1.6784,-1.6781,-1.6775,-1.6766,-1.6741,-1.6784,-1.6805,-1.6666,-1.6702,-1.6652,-1.6645,-1.6669,-1.6669,-1.6676,-1.6771,-1.677,-1.6645,-1.6648,-1.6649,-1.6651,0,0,0,0,0,0,0,-1.678,-1.6785,-1.684,-1.6782,-1.6772,-1.6733,-1.6728,-1.6787,-1.6718,-1.6698,-1.6686,-1.6685,-1.6663,-1.6672,-1.6674,-1.6769,-1.6645,-1.6649,-1.6651,-1.6653,-1.6974,-1.698,0,0,0,0,0,0,-1.6791,-1.6785,-1.6841,-1.6839,-1.6759,-1.6739,-1.6734,-1.6755,-1.6716,-1.6705,-1.669,-1.6678,-1.6668,-1.6669,-1.6673,-1.6832,-1.6649,-1.6653,-1.6656,-1.6968,-1.6976,-1.6982,0,0,0,0,0,0,-1.679,-1.6798,-1.6842,-1.6809,-1.6812,-1.6747,-1.6772,-1.6757,-1.6766,-1.671,-1.6697,-1.6712,-1.6663,-1.6667,-1.6747,-1.6829,-1.6655,-1.6659,-1.6961,-1.6971,-1.6979,-1.7154,0,0,0,0,0,0,-1.6788,-1.6798,-1.6851,-1.6811,-1.6814,-1.6918,-1.6777,-1.6761,-1.6773,-1.6757,-1.6727,-1.6717,-1.6659,-1.6742,-1.6752,-1.6831,-1.6662,-1.6954,-1.6965,-1.6976,-1.714,-1.7167,-1.7191,0,0,0,0,0,-1.6786,-1.6903,-1.6854,-1.6862,-1.6879,-1.6923,-1.6925,-1.6855,-1.678,-1.6832,-1.6796,-1.6718,-1.6819,-1.6752,-1.6761,-1.6844,-1.6948,-1.6962,-1.6975,-1.7129,-1.7162,-1.719,0,0,0,0,0,0,-1.6956,-1.6896,-1.6842,-1.6949,-1.6942,-1.6896,-1.696,-1.6893,-1.6908,-1.6892,-1.6806,-1.6801,-1.6894,-1.6877,-1.6803,-1.6976,-1.687,-1.6886,-1.6983,-1.7014,-1.7039,-1.7041,-1.6666,0,0,0,0,0,-1.7005,-1.7046,-1.6992,-1.7092,-1.7091,-1.7027,-1.7044,-1.699,-1.698,-1.6976,-1.6946,-1.694,-1.6969,-1.6991,-1.7016,-1.7137,-1.7127,-1.7198,-1.7223,-1.7244,-1.7259,-1.7319,-1.7349,-1.7026,-1.7026,-1.7026,0,0,-1.7109,-1.7081,-1.7113,-1.7125,-1.7113,-1.7157,-1.7025,-1.7078,-1.7109,-1.6985,-1.7058,-1.7036,-1.7023,-1.7124,-1.7167,-1.7113,-1.7346,-1.7262,-1.7279,-1.7282,-1.7336,-1.7367,-1.7394,-1.7035,-1.7034,-1.7032,0,0,-1.7319,-1.7304,-1.7383,-1.7373,-1.7356,-1.7312,-1.7332,-1.7295,-1.7275,-1.7347,-1.7253,-1.729,-1.7344,-1.7337,-1.7341,-1.7546,-1.7474,-1.7557,-1.7688,-1.7748,-1.7773,-1.7795,-1.7866,-1.7893,-1.7572,-1.7572,-1.7572,0,-1.7451,-1.7512,-1.7433,-1.7491,-1.7498,-1.7385,-1.7465,-1.7459,-1.7453,-1.746,-1.7399,-1.7462,-1.7446,-1.7542,-1.7592,-1.7599,-1.7618,-1.7559,-1.7776,-1.7797,-1.7817,-1.7883,-1.7911,-1.7582,-1.7581,-1.758,-1.7579,0,-1.7673,-1.7717,-1.7783,-1.7776,-1.7791,-1.786,-1.7791,-1.7816,-1.7761,-1.7723,-1.7797,-1.7773,-1.7789,-1.7808,-1.7756,-1.7897,-1.7863,-1.7791,-1.7682,-1.7859,-1.792,-1.7945,-1.7596,-1.7593,-1.759,-1.7587,0,0,-1.7991,-1.7937,-1.7962,-1.7956,-1.7928,-1.796,-1.8023,-1.8037,-1.8059,-1.8058,-1.8107,-1.8154,-1.8085,-1.809,-1.8036,-1.8088,-1.8249,-1.8008,-1.8006,-1.8052,-1.8401,-1.8455,-1.8486,-1.8201,-1.8206,-1.821,-1.8401,0,-1.819,-1.8293,-1.8222,-1.8337,-1.8375,-1.8267,-1.8321,-1.831,-1.8276,-1.8304,-1.8266,-1.83,-1.8208,-1.8209,-1.8257,-1.822,-1.8318,-1.8205,-1.8246,-1.8249,-1.8251,-1.8518,-1.8576,-1.8758,-1.8425,-1.8429,-1.8432,0,-1.8437,-1.8443,-1.8561,-1.8521,-1.8535,-1.8585,-1.859,-1.8618,-1.8602,-1.8574,-1.8578,-1.8509,-1.8567,-1.8462,-1.854,-1.8465,-1.8477,-1.8462,-1.8467,-1.8467,-1.835,-1.8524,-1.8814,-1.8841,-1.8469,-1.8466,-1.8463,0,-1.8654,-1.8693,-1.8766,-1.8765,-1.8722,-1.8759,-1.8743,-1.8721,-1.8733,-1.8738,-1.8745,-1.8758,-1.8765,-1.8777,-1.8713,-1.8643,-1.88,-1.8689,-1.8777,-1.8779,-1.8815,-1.8813,-1.911,-1.8826,-1.8825,-1.8825,-1.8824,0,-1.8884,-1.896,-1.8863,-1.8909,-1.899,-1.8908,-1.8991,-1.8963,-1.8944,-1.8983,-1.8891,-1.8929,-1.8844,-1.8873,-1.8824,-1.8895,-1.89,-1.8878,-1.8864,-1.8885,-1.8888,-1.8892,-1.8877,-1.8832,-1.883,-1.8829,-1.8828,0,-1.914,-1.9079,-1.9152,-1.9104,-1.9093,-1.9155,-1.9113,-1.9153,-1.9112,-1.9162,-1.9169,-1.9105,-1.9135,-1.9072,-1.9094,-1.9061,-1.9161,-1.9128,-1.9166,-1.9156,-1.9247,-1.9238,-1.9555,-1.9592,-1.9286,-1.9289,-1.9292,0,-1.929,-1.9345,-1.9301,-1.9319,-1.9307,-1.9338,-1.9349,-1.927,-1.9285,-1.927,-1.9312,-1.9333,-1.9345,-1.9398,-1.9354,-1.9369,-1.9335,-1.9444,-1.9337,-1.9356,-1.9334,-1.9331,-1.9335,-1.9467,-1.9471,-1.9474,-1.9476,0,-1.9562,-1.9528,-1.9546,-1.9553,-1.9567,-1.957,-1.9566,-1.9586,-1.9502,-1.9524,-1.9551,-1.9561,-1.9581,-1.9603,-1.9608,-1.9592,-1.952,-1.951,-1.9531,-1.9553,-1.9572,-1.9561,-1.9225,-1.9503,-1.9501,-1.9499,-1.9497,-1.9496,-1.9768,-1.9811,-1.9785,-1.9808,-1.9796,-1.9793,-1.9828,-1.9789,-1.9811,-1.9819,-1.9772,-1.981,-1.979,-1.9789,-1.978,-1.9808,-1.9759,-1.979,-1.9797,-1.9806,-1.982,-1.9569,-1.9809,-1.9808,-1.9808,-1.9807,-1.9806,0,-2.0033,-2.0011,-2.0032,-2.0027,-2.0045,-1.9974,-1.9965,-1.9984,-2.0018,-2.0005,-2.0018,-2.0049,-2.0069,-2.0026,-2.004,-2.0071,-2.0038,-2.0077,-2.0073,-2.007,-1.9864,-1.9844,-2.0103,-2.0103,-2.0103,-2.0103,-2.0103,-2.0103,-2.0173,-2.024,-2.0203,-2.0263,-2.024,-2.0275,-2.0275,-2.0272,-2.0261,-2.0299,-2.0314,-2.0285,-2.0259,-2.027,-2.0285,-2.0272,-2.028,-2.033,-2.0306,-2.0114,-2.0085,-2.0058,-2.0038,-2.0333,-2.0334,-2.0509,-2.0511,-2.0512]},{"header":{"parameterUnit":"m.s-1","parameterCategory":1,"la1":30.2991,"la2":30.254,"lo1":-89.0895,"lo2":-89.0444,"dy":0.0017,"dx":0.0017,"nx":28,"ny":28,"refTime":"2024-03-15T21:00:00:Z","depth":0,"parameterNumber":3,"parameterNumberName":"V-component_of_WINDS"},"data":[0,0,0,0,0,0,0,0,0,0,0,0,0,0,0,0,0,0,0,0,0,0,0,0,0,0,0,0,0,0,0,0,0,0,0,0,0,0,0,0,0,0,0,0,0,0,0,0,0,0,0,0,0,0,0,0,0,0,-0.3844,-0.3841,0,-0.3505,-0.3501,-0.3497,-0.3395,-0.3396,-0.3398,-0.34,-0.3047,-0.3036,-0.3025,0,0,0,0,0,0,0,0,0,0,0,0,0,-0.4407,-0.4397,-0.3845,-0.3841,-0.3836,-0.3505,-0.3501,-0.3496,-0.3394,-0.3397,-0.3399,-0.3401,-0.3051,-0.3038,-0.3024,0,0,0,0,0,0,0,0,0,0,0,0,0,-0.4124,-0.4394,-0.3846,-0.3746,-0.3734,-0.3506,-0.35,-0.3495,-0.3394,-0.3397,-0.3399,-0.3402,-0.3055,-0.3039,-0.3023,-0.2868,0,0,-0.2972,-0.2965,0,0,0,0,0,0,0,0,-0.4141,-0.4104,-0.3765,-0.3752,-0.3738,-0.3495,-0.3569,-0.3285,-0.3393,-0.3523,-0.34,-0.3403,-0.3194,-0.3166,-0.3096,-0.2852,-0.2837,-0.2971,-0.2961,-0.2953,-0.2949,0,0,0,0,0,0,0,-0.416,-0.4118,-0.371,-0.376,-0.3744,-0.3718,-0.3681,-0.3515,-0.3347,-0.3512,-0.3503,-0.3465,-0.3187,-0.3112,-0.3087,-0.2831,-0.2971,-0.2956,-0.2946,-0.294,-0.2449,-0.2446,0,0,0,0,0,0,-0.4197,-0.4135,-0.3721,-0.37,-0.395,-0.3706,-0.3665,-0.357,-0.3349,-0.3318,-0.3463,-0.3461,-0.3139,-0.3107,-0.3074,-0.2881,-0.2954,-0.2938,-0.2929,-0.2452,-0.2448,-0.2445,0,0,0,0,0,0,-0.421,-0.4161,-0.3735,-0.3915,-0.3859,-0.3694,-0.3589,-0.3562,-0.3487,-0.3312,-0.3282,-0.3418,-0.314,-0.3098,-0.2922,-0.2867,-0.2931,-0.2916,-0.2455,-0.2451,-0.2446,-0.2492,0,0,0,0,0,0,-0.4226,-0.4166,-0.4105,-0.3915,-0.385,-0.3587,-0.3585,-0.3554,-0.346,-0.3454,-0.3262,-0.3232,-0.3139,-0.2947,-0.2905,-0.2846,-0.2903,-0.2459,-0.2453,-0.2448,-0.2495,-0.249,-0.2486,0,0,0,0,0,-0.4247,-0.4129,-0.4102,-0.4053,-0.377,-0.3584,-0.3547,-0.3443,-0.3456,-0.3393,-0.3282,-0.3238,-0.2882,-0.293,-0.2882,-0.2817,-0.2462,-0.2455,-0.2448,-0.2497,-0.2491,-0.2486,0,0,0,0,0,0,-0.4314,-0.4102,-0.407,-0.3888,-0.3756,-0.3568,-0.3485,-0.344,-0.3299,-0.33,-0.3176,-0.3134,-0.2967,-0.2875,-0.2933,-0.2658,-0.267,-0.2654,-0.2724,-0.2717,-0.2712,-0.2736,-0.2889,0,0,0,0,0,-0.4309,-0.4176,-0.3998,-0.3855,-0.379,-0.365,-0.3565,-0.3498,-0.3355,-0.3297,-0.3172,-0.3035,-0.2892,-0.28,-0.2658,-0.2483,-0.244,-0.2415,-0.2411,-0.2408,-0.2393,-0.2297,-0.2284,-0.2421,-0.2421,-0.2422,0,0,-0.4294,-0.4162,-0.4085,-0.3865,-0.3754,-0.3621,-0.3603,-0.346,-0.336,-0.3275,-0.3101,-0.3007,-0.2845,-0.267,-0.2587,-0.2588,-0.2347,-0.2399,-0.2398,-0.2384,-0.2288,-0.2276,-0.2264,-0.2417,-0.2418,-0.2418,0,0,-0.4198,-0.4086,-0.3955,-0.3847,-0.3681,-0.359,-0.356,-0.338,-0.3314,-0.3139,-0.3074,-0.2954,-0.2709,-0.2598,-0.2509,-0.2382,-0.2336,-0.234,-0.2313,-0.2221,-0.221,-0.22,-0.2154,-0.214,-0.2327,-0.2327,-0.2327,0,-0.42,-0.3995,-0.3893,-0.3755,-0.3662,-0.3584,-0.3452,-0.3351,-0.3148,-0.3085,-0.3091,-0.2786,-0.2671,-0.2471,-0.2441,-0.2372,-0.2333,-0.2358,-0.222,-0.2209,-0.2198,-0.2153,-0.2137,-0.2328,-0.2328,-0.2328,-0.2328,0,-0.4007,-0.3867,-0.3782,-0.3591,-0.3488,-0.3354,-0.3233,-0.3141,-0.3086,-0.2995,-0.282,-0.2682,-0.2513,-0.2461,-0.2403,-0.2254,-0.226,-0.2245,-0.2253,-0.2188,-0.2144,-0.2126,-0.233,-0.233,-0.2329,-0.2329,0,0,-0.3936,-0.3697,-0.3667,-0.3581,-0.3397,-0.3287,-0.3152,-0.299,-0.2914,-0.2779,-0.2663,-0.2462,-0.2449,-0.2349,-0.2279,-0.2199,-0.2109,-0.2193,-0.2188,-0.2182,-0.1937,-0.1948,-0.1929,-0.208,-0.2077,-0.2074,-0.195,0,-0.3816,-0.3571,-0.3479,-0.3279,-0.315,-0.3079,-0.2962,-0.2837,-0.2751,-0.2629,-0.2533,-0.2393,-0.2386,-0.2326,-0.2244,-0.2137,-0.2057,-0.2145,-0.197,-0.1965,-0.2009,-0.1906,-0.1915,-0.1805,-0.1932,-0.1929,-0.1927,0,-0.3641,-0.3508,-0.3296,-0.3134,-0.3076,-0.2972,-0.2819,-0.2704,-0.2563,-0.2506,-0.2399,-0.2336,-0.2193,-0.2216,-0.2019,-0.2081,-0.2005,-0.1943,-0.1936,-0.1912,-0.1939,-0.1878,-0.1767,-0.175,-0.1899,-0.1901,-0.1903,0,-0.3611,-0.3379,-0.3223,-0.3152,-0.2958,-0.2888,-0.2803,-0.2665,-0.2576,-0.2443,-0.2383,-0.2235,-0.2153,-0.204,-0.194,-0.1966,-0.1752,-0.1766,-0.17,-0.1703,-0.1654,-0.1657,-0.1527,-0.161,-0.1611,-0.1611,-0.1611,0,-0.3484,-0.3357,-0.3207,-0.3111,-0.2968,-0.2866,-0.2728,-0.2639,-0.2518,-0.2404,-0.2335,-0.2229,-0.2105,-0.1984,-0.1905,-0.1754,-0.1718,-0.1668,-0.1648,-0.1672,-0.1678,-0.1617,-0.1621,-0.1606,-0.1607,-0.1608,-0.1609,0,-0.3422,-0.3317,-0.3143,-0.2977,-0.2933,-0.2835,-0.2692,-0.2597,-0.2512,-0.2369,-0.233,-0.2194,-0.2049,-0.194,-0.175,-0.1698,-0.1537,-0.1517,-0.1585,-0.1574,-0.1514,-0.1521,-0.1337,-0.1308,-0.1414,-0.1413,-0.1413,0,-0.3346,-0.3248,-0.3074,-0.2994,-0.2912,-0.2783,-0.2693,-0.2592,-0.2501,-0.2337,-0.2262,-0.2114,-0.1988,-0.176,-0.1644,-0.15,-0.1475,-0.1421,-0.1452,-0.1481,-0.1472,-0.1478,-0.1468,-0.1415,-0.1414,-0.1414,-0.1413,0,-0.3223,-0.3179,-0.3052,-0.2909,-0.2805,-0.2687,-0.2567,-0.2506,-0.2383,-0.2285,-0.2138,-0.2042,-0.1852,-0.1705,-0.1552,-0.1465,-0.1418,-0.1406,-0.1383,-0.1404,-0.1448,-0.1423,-0.1571,-0.1409,-0.1409,-0.141,-0.141,-0.141,-0.315,-0.3062,-0.2927,-0.279,-0.2691,-0.2583,-0.2487,-0.2392,-0.2268,-0.2107,-0.2056,-0.1904,-0.1771,-0.156,-0.1473,-0.1353,-0.1352,-0.1319,-0.131,-0.1302,-0.1304,-0.1471,-0.1325,-0.1325,-0.1325,-0.1325,-0.1325,0,-0.3023,-0.2935,-0.2811,-0.2649,-0.2542,-0.2514,-0.2382,-0.2294,-0.2163,-0.2044,-0.1924,-0.1758,-0.1617,-0.1494,-0.1348,-0.1276,-0.1251,-0.1241,-0.1243,-0.1224,-0.1313,-0.1347,-0.1263,-0.1264,-0.1264,-0.1264,-0.1264,-0.1264,-0.2943,-0.2792,-0.2733,-0.2533,-0.2445,-0.2298,-0.2226,-0.2127,-0.2032,-0.185,-0.1734,-0.1656,-0.1536,-0.1382,-0.1253,-0.122,-0.1169,-0.1164,-0.1126,-0.121,-0.1217,-0.1224,-0.1256,-0.1154,-0.1154,-0.1046,-0.1045,-0.1044]}]]